NOAA 16 DEB, 41236

Orbit data source: Space-Track

NOAA 16 DEB, 41236 is space debris in SSO originally from a launch on Thu, 21 Sep 2000 UTC launched from the Air Force Western Test Range (AFWTR). Debris objects in space refer to the collection of defunct objects orbiting the Earth. Examples of debris include non-operational satellites, rocket bodies, and fragments generated from explosions, collisions, or faulty payload assembly.

Loading next visibility...
Identifier
41236, 2000-055ER
Orbit
SSO
Country
Flag of USUS
Related business
Manufacturer
Unknown
Mission
Spacecraft
Bus & Motor
Unknown
Mass
Unknown
Launch date (UTC)
2000-09-21 (26 years ago)
Launch vehicle
Unknown
Launch site
Air Force Western Test Range (AFWTR)
Object type
Payload
Rocket body
Debris
Shape & HBR
Unknown shape, 0.1 m
Radar Cross Section
Medium (>0.1 m² and <1 m²)

Expand to show TLE details & history
Last TLE update: 2 days ago

TLE from 2 days ago
0 NOAA 16 DEB
1 41236U 00055ER  26227.56593257  .00003123  00000-0  78694-3 0  9993
2 41236  99.0469 128.5072 0030150 295.9598  63.8490 14.51655233556355
Epoch: 2026-08-15T13:34Z
TLE epoch observation values (Epoch: 2026-08-15T13:34:56.574Z)
Latitude
0.00007°
Longitude
-39.20351°
Altitude
713.812 km
Speed
7.504 km/s
True Right ascension
08h 34m 01s
True Declination
0° 00' 00"
Sunlit
Object was in daylight at epoch
Visualization orbit readout
Latitude
Unknown
Longitude
Unknown
Altitude
Unknown
Speed
Unknown
Apparent Right ascension
Unknown
Apparent Declination
Unknown
Sunlit
N/A
Visualization observer readout
Local Sidereal Time
16:41:06
Azimuth
Unknown
Elevation
Unknown
Doppler factor
Unknown
Orbital elements
Apogee altitude
738.774 km
Perigee altitude
695.988 km
Semi-major axis
7,095.518 km
Eccentricity
0.00302
Inclination
99.0469°
RAAN
128.5072°
Arg. of periapsis
295.9598°
True anomaly
64.15964°
Mean anomaly
63.849°
Eccentric anomaly
64.00427°
Mean motion
3.63134 °/min
Orbital period
99.14 mins
BSTAR
0.00078694
Loading maneuver chart data...
Computing Atmospheric mass density...
Loading historical data...
Loading historical data...
Loading historical data...
Loading historical data...
Loading historical data...
Loading historical data...
Loading historical data...

Documentation

Showing up to 5 results
|